TimeCST,TemperatureF,Dew PointF,Humidity,Sea Level PressureIn,VisibilityMPH,Wind Direction,Wind SpeedMPH,Gust SpeedMPH,PrecipitationIn,Events,Conditions,WindDirDegrees,DateUTC
12:15 AM,-0.8,-4.2,85,30.25,10.0,Calm,Calm,-,N/A,,Overcast,0,2013-01-01 06:15:00
12:35 AM,1.4,-2.2,85,30.25,10.0,Calm,Calm,-,N/A,,Overcast,0,2013-01-01 06:35:00
12:55 AM,2.3,-1.3,85,30.24,10.0,Calm,Calm,-,N/A,,Overcast,0,2013-01-01 06:55:00
1:15 AM,3.9,0.7,86,30.24,10.0,Calm,Calm,-,N/A,,Overcast,0,2013-01-01 07:15:00
1:35 AM,5.0,1.9,87,30.24,10.0,Calm,Calm,-,N/A,,Overcast,0,2013-01-01 07:35:00
2:15 AM,6.6,3.9,89,30.25,10.0,Calm,Calm,-,N/A,,Overcast,0,2013-01-01 08:15:00
2:35 AM,7.7,5.0,89,30.25,10.0,Calm,Calm,-,N/A,,Overcast,0,2013-01-01 08:35:00
2:55 AM,8.1,5.4,89,30.25,10.0,Calm,Calm,-,N/A,,Overcast,0,2013-01-01 08:55:00
3:15 AM,8.2,5.5,89,30.25,10.0,Calm,Calm,-,N/A,,Overcast,0,2013-01-01 09:15:00
3:35 AM,8.2,5.5,89,30.25,10.0,Calm,Calm,-,N/A,,Overcast,0,2013-01-01 09:35:00
3:55 AM,7.3,4.5,88,30.25,10.0,Calm,Calm,-,N/A,,Overcast,0,2013-01-01 09:55:00
4:15 AM,5.9,3.0,88,30.25,10.0,Calm,Calm,-,N/A,,Overcast,0,2013-01-01 10:15:00
4:35 AM,5.5,2.3,86,30.24,10.0,Calm,Calm,-,N/A,,Overcast,0,2013-01-01 10:35:00
5:15 AM,3.2,-0.4,85,30.24,10.0,Calm,Calm,-,N/A,,Overcast,0,2013-01-01 11:15:00
5:35 AM,3.6,0.3,86,30.24,10.0,Calm,Calm,-,N/A,,Overcast,0,2013-01-01 11:35:00
6:15 AM,5.2,2.5,89,30.23,10.0,Calm,Calm,-,N/A,,Overcast,0,2013-01-01 12:15:00
6:35 AM,6.4,3.6,88,30.23,10.0,Calm,Calm,-,N/A,,Overcast,0,2013-01-01 12:35:00
7:15 AM,7.2,4.1,87,30.23,10.0,Calm,Calm,-,N/A,,Overcast,0,2013-01-01 13:15:00
7:35 AM,7.3,4.6,89,30.24,10.0,Calm,Calm,-,N/A,,Overcast,0,2013-01-01 13:35:00
7:55 AM,7.7,5.2,89,30.24,10.0,Calm,Calm,-,N/A,,Overcast,0,2013-01-01 13:55:00
8:15 AM,8.6,5.9,89,30.23,10.0,South,3.5,-,N/A,,Overcast,190,2013-01-01 14:15:00
8:35 AM,9.3,6.8,89,30.22,10.0,South,3.5,-,N/A,,Overcast,180,2013-01-01 14:35:00
8:55 AM,9.9,7.5,90,30.22,10.0,South,4.6,-,N/A,,Overcast,180,2013-01-01 14:55:00
9:15 AM,11.3,8.6,89,30.22,7.0,South,5.8,-,N/A,,Overcast,180,2013-01-01 15:15:00
9:35 AM,13.3,11.3,92,30.23,7.0,SSW,3.5,-,N/A,Snow,Light Snow,200,2013-01-01 15:35:00
9:55 AM,13.6,11.5,91,30.24,10.0,South,4.6,-,N/A,,Overcast,190,2013-01-01 15:55:00
10:15 AM,14.0,11.8,91,30.25,10.0,Calm,Calm,-,N/A,,Overcast,0,2013-01-01 16:15:00
10:35 AM,14.9,12.7,91,30.26,7.0,Calm,Calm,-,N/A,,Overcast,0,2013-01-01 16:35:00
10:55 AM,15.8,12.9,88,30.26,10.0,SSW,4.6,-,N/A,,Overcast,200,2013-01-01 16:55:00
11:15 AM,16.7,13.1,86,30.25,10.0,SSW,6.9,-,N/A,,Overcast,210,2013-01-01 17:15:00
11:35 AM,17.4,13.8,86,30.24,10.0,SW,4.6,-,N/A,,Overcast,230,2013-01-01 17:35:00
11:55 AM,18.0,14.2,85,30.23,10.0,SW,10.4,-,N/A,,Overcast,220,2013-01-01 17:55:00
12:15 PM,16.9,13.1,85,30.22,7.0,SW,11.5,-,N/A,,Overcast,220,2013-01-01 18:15:00
12:35 PM,15.8,12.4,86,30.21,7.0,SSW,10.4,-,N/A,,Overcast,210,2013-01-01 18:35:00
12:55 PM,17.1,14.0,88,30.20,7.0,SSW,12.7,-,N/A,,Scattered Clouds,210,2013-01-01 18:55:00
1:15 PM,17.4,14.2,87,30.19,7.0,SSW,12.7,-,N/A,,Scattered Clouds,210,2013-01-01 19:15:00
1:35 PM,18.1,14.7,86,30.18,7.0,SSW,10.4,-,N/A,,Clear,200,2013-01-01 19:35:00
1:55 PM,19.2,15.3,85,30.17,10.0,SSW,10.4,-,N/A,,Clear,200,2013-01-01 19:55:00
2:15 PM,19.8,15.4,83,30.17,10.0,SSW,10.4,-,N/A,,Clear,200,2013-01-01 20:15:00
2:35 PM,19.4,15.6,85,30.16,10.0,SSW,12.7,-,N/A,,Mostly Cloudy,210,2013-01-01 20:35:00
2:55 PM,19.9,16.2,85,30.15,10.0,SSW,12.7,-,N/A,,Overcast,210,2013-01-01 20:55:00
3:15 PM,19.9,16.7,87,30.15,10.0,SW,13.8,-,N/A,,Overcast,220,2013-01-01 21:15:00
3:35 PM,19.9,17.6,91,30.15,7.0,SW,11.5,-,N/A,,Overcast,220,2013-01-01 21:35:00
3:55 PM,20.3,18.5,93,30.14,7.0,SW,11.5,-,N/A,,Overcast,220,2013-01-01 21:55:00
4:15 PM,20.7,18.5,91,30.13,7.0,SSW,9.2,-,N/A,,Overcast,210,2013-01-01 22:15:00
4:35 PM,21.2,19.0,91,30.13,7.0,SSW,6.9,-,N/A,,Overcast,210,2013-01-01 22:35:00
5:15 PM,21.7,19.6,91,30.12,7.0,South,8.1,-,N/A,,Overcast,190,2013-01-01 23:15:00
5:35 PM,21.0,19.2,93,30.12,7.0,SSW,8.1,-,N/A,,Overcast,200,2013-01-01 23:35:00
5:55 PM,21.2,19.4,93,30.10,7.0,South,9.2,-,N/A,,Overcast,190,2013-01-01 23:55:00
6:15 PM,21.4,19.9,94,30.10,7.0,South,9.2,-,N/A,,Overcast,190,2013-01-02 00:15:00
6:35 PM,22.1,20.8,95,30.10,7.0,SSW,10.4,-,N/A,,Overcast,210,2013-01-02 00:35:00
6:55 PM,22.3,21.0,95,30.10,5.0,SW,11.5,-,N/A,,Overcast,220,2013-01-02 00:55:00
7:15 PM,20.5,19.0,94,30.09,5.0,SSW,8.1,-,N/A,,Mostly Cloudy,210,2013-01-02 01:15:00
7:35 PM,18.3,16.5,93,30.09,7.0,SSW,8.1,-,N/A,,Clear,200,2013-01-02 01:35:00
7:55 PM,15.8,13.6,91,30.09,7.0,SSW,5.8,-,N/A,,Clear,200,2013-01-02 01:55:00
8:15 PM,15.4,13.3,91,30.08,7.0,South,5.8,-,N/A,,Clear,190,2013-01-02 02:15:00
8:35 PM,14.4,12.4,92,30.08,7.0,SSW,5.8,-,N/A,,Clear,200,2013-01-02 02:35:00
8:55 PM,13.8,11.7,91,30.07,7.0,SSW,9.2,-,N/A,,Clear,210,2013-01-02 02:55:00
9:15 PM,13.5,11.1,90,30.07,7.0,SW,6.9,-,N/A,,Clear,220,2013-01-02 03:15:00
9:35 PM,12.2,9.9,90,30.07,7.0,SSW,5.8,-,N/A,,Clear,210,2013-01-02 03:35:00
9:55 PM,10.0,7.7,90,30.06,7.0,Calm,Calm,-,N/A,,Clear,0,2013-01-02 03:55:00
10:15 PM,8.8,7.0,92,30.05,7.0,SSW,4.6,-,N/A,,Clear,200,2013-01-02 04:15:00
10:35 PM,10.9,9.3,93,30.05,7.0,SSW,8.1,-,N/A,,Clear,200,2013-01-02 04:35:00
10:55 PM,11.1,9.3,92,30.04,7.0,SSW,8.1,-,N/A,,Clear,200,2013-01-02 04:55:00
11:15 PM,9.9,7.7,91,30.03,7.0,SSW,6.9,-,N/A,,Clear,200,2013-01-02 05:15:00
11:35 PM,8.1,5.7,90,30.04,7.0,SSW,3.5,-,N/A,,Clear,200,2013-01-02 05:35:00
11:55 PM,10.0,8.4,93,30.03,7.0,Calm,Calm,-,N/A,,Clear,0,2013-01-02 05:55:00